Home   Weather   Brampton   Past weeks
Flag for Canada

Past Weather in Brampton, Ontario, Canada — Yesterday and Last 2 Weeks

Now
70 °F

Broken clouds.


Feels Like: 70 °F
Forecast: N/A
Wind: 9 mph from South

Location: Toronto Pearson International Airport

Current Time: May 24, 2019 at 5:54:39 pm

Latest Report: May 24, 2019 at 5:00 pm


Visibility: 15 mi

Pressure: 30.12 "Hg

Humidity: 53%

Dew Point: 52 °F

Location of BramptonLocation

Past Weather in Brampton — Graph

°F

Brampton Temperature Yesterday

Maximum temperature yesterday: 79 °F (at 4:00 pm)
Minimum temperature yesterday: 48 °F (at 2:00 am)
Average temperature yesterday: 58 °F

High & Low Weather Summary for the Past Weeks

 TemperatureHumidityPressure
High79 °F (May 23, 4:00 pm)100% (May 10, 12:46 am)30.27 "Hg (May 10, 12:46 am)
Low36 °F (May 11, 4:01 am)30% (May 21, 5:00 pm)29.66 "Hg (May 17, 2:00 am)
Average53 °F72%29.92 "Hg
* Reported May 9 4:00 pm — May 24 4:00 pm, Brampton. Weather by CustomWeather, © 2019

Note: Actual official high and low records may vary slightly from our data, if they occured in-between our weather recording intervals... More about our weather records

Advertising

Brampton Weather History for the Previous 24 Hours

Scroll right to see more
 ConditionsComfort  
Time TempWeatherWind HumidityBarometerVisibility
4:00 pm
Fri, May 24
70 °FPartly sunny.6 mph57%30.12 "Hg15 mi
3:00 pm68 °FPartly sunny.7 mph60%30.11 "Hg15 mi
2:00 pm64 °FBroken clouds.14 mph64%30.11 "Hg15 mi
1:00 pm64 °FScattered clouds.9 mph64%30.12 "Hg15 mi
12:00 pm63 °FOvercast.8 mph73%30.13 "Hg15 mi
11:00 am61 °FPartly sunny.8 mph72%30.11 "Hg15 mi
10:00 am63 °FPartly sunny.9 mph68%30.09 "Hg15 mi
9:00 am59 °FPartly sunny.9 mph72%30.08 "Hg15 mi
8:00 am57 °FPassing clouds.10 mph77%30.06 "Hg15 mi
7:00 am55 °FPassing clouds.15 mph77%30.04 "Hg15 mi
6:00 am54 °FPassing clouds.16 mph82%30.01 "Hg15 mi
5:00 am54 °FPassing clouds.15 mph82%29.99 "Hg15 mi
4:00 am54 °FPassing clouds.15 mph82%29.97 "Hg15 mi
3:00 am55 °FClear.15 mph77%29.95 "Hg15 mi
2:00 am55 °FPassing clouds.15 mph77%29.96 "Hg15 mi
1:00 am57 °FClear.17 mph72%29.95 "Hg15 mi
12:00 am57 °FClear.15 mph67%29.94 "Hg15 mi
11:00 pm
Thu, May 23
59 °FPassing clouds.14 mph63%29.93 "Hg15 mi
10:00 pm61 °FPassing clouds.12 mph59%29.91 "Hg15 mi
9:00 pm64 °FPassing clouds.29 mph52%29.88 "Hg15 mi
8:00 pm72 °FScattered clouds.23 mph38%29.82 "Hg15 mi
7:00 pm72 °FScattered clouds.21 mph47%29.80 "Hg15 mi
6:00 pm75 °FPassing clouds.26 mph41%29.79 "Hg15 mi
5:00 pm77 °FPassing clouds.26 mph42%29.78 "Hg15 mi
Weather by CustomWeather, © 2019

See weather overview